Wind_Speed
11 12 12 12 12 13 13 14 14 14 14 14 15 15 15 15 15 15 15 14 15 15 15 15 15 15 15 16 16 16 17 17 16 16 15 15 14 14 13 13 13 14 15
11 12 13 13 13 14 14 15 15 15 15 15 15 15 15 15 15 15 16 15 15 15 15 15 15 15 15 16 16 16 17 17 17 16 16 15 15 15 15 14 13 14 15
12 14 14 14 15 15 15 15 15 15 15 16 15 16 16 15 15 15 15 15 15 16 16 16 16 16 15 16 16 16 17 17 17 17 17 16 16 16 16 16 15 14 14
13 14 15 15 15 16 16 15 15 15 15 15 15 15 15 15 15 15 15 15 15 16 17 17 17 16 16 16 16 16 17 17 17 18 17 17 17 16 15 16 16 15 15
14 14 15 15 16 16 15 15 15 15 15 15 15 15 15 16 16 16 17 17 16 17 17 17 17 16 15 16 16 16 16 16 17 17 18 17 16 15 15 16 16 16 15
14 14 15 15 15 15 15 16 16 16 15 15 16 16 16 16 17 17 17 18 18 18 18 18 18 17 17 16 16 16 16 17 17 17 17 17 16 16 16 16 15 15 15
14 14 14 15 15 16 16 16 17 17 17 16 17 17 17 17 18 18 18 19 19 18 18 18 18 18 18 18 17 17 16 16 16 17 17 17 16 16 16 16 16 15 15
15 15 15 16 16 16 17 18 18 18 18 18 18 18 18 18 19 19 18 18 19 19 19 19 19 19 18 18 18 17 17 16 16 17 17 17 16 16 16 16 16 16 16
16 16 16 17 17 18 18 18 18 19 19 19 19 19 19 19 19 19 20 19 19 20 20 20 20 20 19 19 18 18 17 17 17 17 17 18 18 18 18 17 17 16 16
17 17 18 18 18 19 19 19 19 19 20 19 19 19 20 20 19 19 20 20 20 21 21 20 20 20 20 19 20 19 18 18 18 18 19 19 19 19 19 19 18 17 16
17 18 18 18 19 19 19 19 18 19 19 19 20 20 20 21 20 20 20 21 21 22 22 23 21 21 21 21 20 20 20 20 19 19 20 19 20 20 20 20 20 18 17
18 18 19 19 19 19 19 19 18 19 19 20 20 21 21 21 21 21 21 21 22 22 22 23 22 21 21 21 21 21 20 20 20 20 20 20 20 20 20 20 20 20 19
19 19 19 19 19 19 19 19 19 20 20 21 21 22 22 22 22 22 22 22 22 23 23 23 22 21 21 22 22 21 21 21 20 20 20 20 20 20 20 20 20 19 19
19 20 20 20 20 20 20 20 20 21 22 22 23 23 23 23 23 23 23 22 22 22 23 23 23 23 22 22 22 21 21 21 21 20 20 20 20 20 19 19 19 19 19
21 21 22 22 22 22 21 21 22 22 23 23 23 24 24 24 24 24 24 24 23 23 23 23 23 24 24 23 23 22 21 21 21 21 21 21 20 20 20 20 20 20 20
23 23 23 23 23 23 23 23 23 23 24 24 24 25 25 25 25 25 25 25 24 24 23 23 23 23 24 24 24 23 22 22 21 21 21 21 21 21 21 21 21 21 21
23 24 24 24 24 25 25 25 25 26 26 26 26 26 25 26 26 26 26 26 26 25 25 24 24 24 25 25 24 24 24 23 23 22 22 22 22 22 22 22 22 22 22
26 25 25 26 26 26 26 27 27 27 27 27 27 27 27 27 27 27 27 27 27 27 26 26 25 25 26 26 26 25 25 25 25 24 23 23 23 23 23 23 23 23 23
27 27 27 27 27 27 28 28 28 28 29 29 28 28 28 28 27 27 27 27 27 27 27 27 26 26 26 27 27 26 27 26 26 26 25 25 25 25 25 24 24 24 24
28 28 28 29 29 29 29 30 30 30 31 31 30 30 29 28 28 28 29 28 28 28 28 28 27 27 27 27 27 27 27 27 27 27 27 27 26 26 27 26 24 24 24
30 30 30 30 31 31 31 31 31 32 32 31 31 30 30 30 30 30 30 30 30 30 29 29 29 29 28 28 28 28 28 28 27 27 27 27 28 27 27 27 26 25 25
32 32 31 31 32 32 31 30 30 31 30 30 30 30 30 31 30 31 31 30 30 30 30 30 30 30 29 29 29 29 29 28 28 28 27 27 27 27 27 27 26 26 26
32 31 31 31 31 30 30 30 30 29 29 29 29 29 29 29 30 31 31 31 30 30 30 30 30 30 30 30 30 30 30 29 29 29 28 28 27 27 27 27 27 27 27
30 30 30 29 29 29 29 29 29 29 29 28 28 28 28 28 28 29 29 30 30 29 29 30 31 30 30 30 31 30 30 29 29 30 30 29 28 28 28 28 28 28 28
29 29 29 28 28 28 28 28 28 28 28 27 28 28 27 28 28 28 28 28 28 28 28 28 29 29 29 29 30 31 31 30 29 29 29 29 29 29 29 29 29 29 28
28 28 28 27 27 27 27 27 27 28 28 27 27 27 27 27 27 27 26 26 26 27 27 27 29 29 29 29 30 31 31 31 30 30 30 30 29 30 30 30 30 30 30
Wind_Direction
266 267 270 271 272 274 277 280 279 281 282 282 283 282 278 277 275 273 273 274 272 269 266 267 267 269 271 271 269 267 269 271 271 271 271 271 270 269 273 272 267 258 255
270 268 271 272 273 276 277 277 278 279 280 280 281 280 279 277 276 275 272 273 272 271 269 268 267 267 270 270 270 270 270 272 270 269 267 268 270 274 272 268 268 266 265
272 270 272 274 274 277 278 277 276 278 279 280 281 281 279 277 275 274 274 273 272 270 270 273 269 269 270 269 270 271 271 271 269 268 268 268 269 272 270 269 270 268 268
278 275 274 274 275 277 279 279 278 279 279 280 281 281 279 278 275 272 272 273 273 272 271 274 269 270 272 274 273 271 272 271 270 269 270 270 270 274 273 269 270 269 266
281 280 278 278 278 278 279 281 281 281 281 281 282 283 281 279 277 274 272 271 271 271 271 272 270 271 273 273 275 275 273 270 269 269 268 270 270 271 273 270 271 267 264
283 282 280 278 277 278 280 283 284 285 283 283 283 284 284 281 279 276 273 271 271 271 270 270 271 271 276 275 275 276 276 272 269 269 268 267 266 267 269 272 273 270 266
284 283 280 278 277 278 281 283 284 286 285 283 284 285 285 284 281 278 275 273 272 272 272 271 272 272 274 276 275 277 274 273 272 270 269 267 267 267 268 270 270 271 268
285 282 279 278 279 281 282 284 283 284 284 284 284 285 286 283 281 279 276 273 273 272 272 273 274 272 273 275 275 276 276 274 273 272 268 267 266 266 267 266 269 268 265
285 284 283 281 281 282 283 283 284 285 285 285 284 284 285 284 282 280 277 274 273 272 272 274 274 272 271 272 272 273 274 275 273 270 268 268 267 265 266 267 268 268 265
287 286 284 283 281 281 282 282 283 284 285 284 284 284 284 284 284 281 278 274 272 271 271 274 275 272 270 270 270 271 272 273 272 270 269 269 268 266 265 267 267 266 265
289 288 287 285 284 283 283 284 284 286 285 284 283 283 283 284 285 283 279 275 272 271 271 272 275 273 270 268 268 269 270 271 272 271 268 267 267 265 265 266 265 263 263
288 287 287 287 286 285 284 283 284 286 285 284 283 283 283 283 284 284 280 275 274 273 273 272 272 272 271 269 267 267 268 270 270 270 266 265 264 265 266 265 263 261 260
289 287 286 285 283 283 283 281 283 285 285 285 286 285 284 283 283 283 282 278 275 273 273 272 271 270 270 270 270 268 268 270 270 269 267 264 262 262 264 264 263 260 260
290 288 287 286 284 283 283 282 283 285 285 285 285 284 283 283 283 283 282 280 277 274 273 272 270 269 269 269 270 270 270 271 271 270 268 265 262 262 263 264 262 262 262
289 289 288 287 285 284 282 282 282 285 286 285 285 284 283 282 281 281 281 280 278 275 272 272 270 268 268 268 268 267 268 269 270 269 267 265 263 262 263 264 263 263 261
288 288 289 286 285 283 282 281 282 284 285 285 285 284 283 281 280 280 279 279 278 276 273 271 270 267 266 267 266 265 265 266 267 267 265 261 261 261 263 262 262 261 260
287 288 289 287 285 283 281 281 282 283 285 285 285 283 281 280 280 280 278 277 277 275 273 272 270 267 266 266 266 265 265 263 264 266 266 260 259 259 260 260 258 258 259
287 287 288 287 285 283 282 282 282 283 283 283 282 282 281 280 280 279 277 276 275 274 273 272 270 268 266 265 265 265 265 264 263 264 266 262 259 258 259 261 258 257 258
285 285 286 286 286 284 283 282 282 283 283 283 282 281 280 279 279 278 277 276 274 273 272 271 269 270 268 266 265 264 264 264 263 263 264 264 260 258 258 261 261 260 259
285 285 285 285 285 284 284 282 282 282 283 283 281 281 280 277 277 277 277 276 274 272 270 269 268 268 269 267 265 265 264 264 263 262 262 262 262 261 260 262 261 260 262
287 286 285 285 285 284 285 284 284 284 283 282 281 282 281 278 276 276 275 274 273 271 269 267 266 267 268 267 266 265 263 264 263 261 261 262 263 263 261 261 261 260 261
288 288 286 285 284 284 284 285 285 285 284 283 282 282 282 279 276 275 273 272 272 272 270 267 267 268 266 266 266 265 263 262 262 261 261 261 262 262 261 261 260 259 259
287 288 287 286 285 286 285 285 284 284 284 285 284 283 283 281 279 277 274 272 271 271 270 268 267 267 266 265 265 265 263 261 262 262 262 261 261 262 261 260 259 259 257
287 287 287 287 287 286 286 285 286 285 285 285 284 285 285 282 282 281 277 274 272 271 271 269 268 267 265 264 264 264 263 263 263 263 262 262 261 261 262 260 259 259 259
288 287 287 287 287 286 284 285 286 286 286 286 285 286 286 285 283 281 278 275 273 271 271 270 269 266 265 264 264 264 263 262 263 263 263 262 261 260 261 261 259 258 259
288 287 287 287 286 285 284 285 285 286 286 286 287 287 285 285 284 282 279 277 275 272 271 271 270 267 265 263 263 263 262 262 262 262 262 262 262 260 259 259 258 258 259
Height
5843 5844 5845 5846 5846 5846 5846 5846 5846 5845 5845 5845 5845 5844 5845 5844 5844 5845 5845 5845 5845 5845 5845 5845 5846 5846 5847 5847 5847 5847 5847 5847 5847 5847 5847 5847 5847 5846 5846 5845 5843 5843 5845
5841 5842 5843 5843 5843 5843 5843 5843 5843 5842 5842 5842 5841 5841 5841 5841 5841 5841 5842 5842 5842 5842 5842 5842 5842 5843 5843 5844 5844 5844 5844 5844 5844 5844 5844 5844 5844 5844 5844 5844 5844 5843 5844
5839 5839 5840 5840 5840 5840 5840 5840 5839 5839 5839 5838 5838 5838 5837 5837 5837 5838 5838 5838 5839 5839 5839 5839 5839 5839 5840 5840 5840 5840 5841 5841 5840 5841 5841 5841 5841 5841 5841 5841 5841 5842 5842
5837 5837 5837 5837 5837 5837 5837 5836 5836 5836 5836 5835 5835 5834 5834 5834 5834 5834 5834 5835 5835 5835 5836 5836 5835 5835 5836 5836 5836 5837 5837 5837 5837 5837 5837 5837 5838 5838 5838 5837 5838 5838 5839
5834 5834 5834 5834 5833 5833 5833 5833 5833 5833 5832 5832 5831 5831 5831 5830 5830 5830 5831 5831 5831 5832 5832 5832 5832 5832 5832 5833 5833 5833 5833 5833 5833 5833 5833 5833 5834 5834 5835 5834 5835 5835 5836
5830 5830 5830 5830 5830 5830 5830 5830 5830 5829 5829 5828 5828 5828 5827 5827 5826 5826 5827 5827 5827 5828 5828 5828 5829 5829 5829 5829 5829 5829 5829 5829 5829 5829 5829 5830 5830 5831 5831 5831 5832 5832 5832
5827 5827 5827 5827 5827 5827 5826 5826 5826 5826 5825 5825 5825 5824 5824 5823 5823 5823 5823 5823 5823 5824 5824 5824 5824 5824 5825 5825 5825 5825 5825 5825 5825 5825 5825 5826 5826 5827 5827 5827 5828 5828 5829
5824 5824 5824 5824 5823 5823 5823 5822 5822 5822 5821 5821 5821 5821 5820 5820 5819 5819 5819 5819 5819 5819 5819 5820 5820 5820 5820 5821 5821 5821 5821 5821 5821 5821 5821 5822 5822 5823 5823 5823 5824 5824 5825
5820 5820 5820 5820 5820 5819 5819 5819 5818 5818 5817 5817 5816 5816 5816 5815 5815 5814 5814 5814 5814 5815 5815 5815 5815 5816 5816 5816 5816 5816 5817 5817 5817 5817 5817 5817 5818 5818 5819 5819 5820 5820 5821
5816 5816 5816 5816 5815 5815 5815 5814 5814 5813 5813 5812 5812 5811 5811 5811 5810 5810 5810 5809 5809 5810 5810 5810 5810 5811 5811 5812 5812 5812 5812 5812 5812 5812 5812 5812 5813 5813 5814 5815 5815 5816 5817
5812 5811 5811 5811 5810 5810 5810 5809 5809 5808 5808 5807 5807 5806 5806 5805 5805 5805 5805 5805 5804 5804 5805 5805 5806 5806 5806 5806 5807 5807 5807 5807 5807 5807 5807 5807 5808 5808 5809 5810 5811 5811 5812
5808 5807 5806 5806 5805 5805 5805 5804 5804 5803 5803 5802 5802 5801 5800 5800 5799 5799 5799 5799 5799 5799 5799 5799 5800 5800 5800 5801 5801 5802 5802 5802 5802 5801 5802 5802 5803 5803 5804 5804 5805 5807 5808
5803 5802 5802 5801 5801 5800 5800 5799 5799 5798 5798 5797 5796 5796 5795 5794 5794 5793 5793 5793 5793 5793 5793 5793 5794 5794 5794 5795 5795 5796 5796 5796 5796 5796 5796 5797 5797 5798 5799 5799 5800 5801 5803
5799 5798 5797 5796 5796 5795 5794 5794 5793 5793 5792 5791 5790 5790 5789 5788 5787 5787 5787 5787 5787 5787 5787 5787 5787 5788 5788 5789 5789 5790 5791 5791 5791 5791 5791 5791 5792 5793 5794 5794 5795 5797 5798
5793 5792 5791 5791 5790 5789 5788 5788 5787 5787 5786 5785 5784 5783 5783 5782 5781 5781 5780 5780 5781 5781 5781 5781 5781 5782 5782 5783 5783 5784 5785 5785 5785 5785 5786 5786 5787 5788 5789 5789 5790 5791 5792
5788 5786 5785 5784 5784 5783 5782 5782 5781 5780 5779 5778 5778 5777 5776 5775 5774 5774 5773 5773 5773 5774 5774 5774 5775 5775 5776 5776 5777 5778 5778 5779 5779 5780 5780 5781 5782 5782 5783 5784 5785 5786 5787
5781 5780 5779 5778 5777 5776 5775 5774 5774 5773 5772 5771 5770 5769 5769 5768 5767 5767 5766 5766 5766 5766 5767 5767 5767 5768 5769 5769 5770 5771 5772 5773 5773 5774 5774 5775 5776 5777 5777 5778 5779 5780 5781
5774 5772 5771 5770 5769 5768 5767 5766 5766 5765 5764 5763 5762 5761 5761 5760 5760 5759 5758 5758 5758 5758 5758 5759 5760 5761 5761 5762 5763 5764 5765 5766 5766 5767 5768 5768 5769 5770 5771 5772 5773 5774 5775
5766 5765 5763 5762 5761 5760 5759 5758 5757 5756 5756 5755 5754 5753 5752 5752 5751 5751 5750 5750 5750 5750 5750 5751 5752 5753 5754 5754 5755 5756 5757 5758 5759 5760 5761 5762 5762 5763 5764 5765 5766 5767 5768
5757 5756 5755 5753 5752 5751 5750 5749 5748 5747 5746 5745 5745 5744 5743 5743 5742 5742 5741 5741 5741 5741 5741 5742 5743 5744 5745 5746 5747 5749 5749 5750 5752 5753 5754 5755 5755 5756 5757 5758 5759 5760 5761
5748 5747 5745 5744 5743 5742 5740 5739 5738 5737 5736 5736 5735 5734 5733 5733 5733 5732 5732 5731 5731 5731 5732 5733 5734 5735 5736 5737 5739 5740 5741 5742 5743 5745 5746 5747 5748 5748 5749 5750 5752 5753 5754
5739 5737 5736 5734 5733 5732 5731 5729 5728 5727 5726 5725 5725 5724 5723 5722 5722 5722 5721 5721 5721 5721 5722 5723 5724 5726 5727 5728 5729 5731 5732 5734 5735 5737 5737 5739 5739 5741 5742 5743 5744 5745 5746
5730 5728 5726 5725 5723 5722 5721 5720 5719 5718 5717 5716 5715 5714 5713 5712 5711 5710 5710 5710 5711 5711 5712 5713 5714 5715 5717 5719 5720 5722 5723 5725 5726 5728 5729 5730 5731 5732 5733 5734 5735 5737 5738
5721 5719 5717 5716 5715 5714 5712 5711 5710 5709 5708 5707 5706 5705 5704 5703 5701 5700 5700 5700 5701 5701 5702 5703 5704 5705 5707 5708 5710 5712 5713 5715 5717 5718 5719 5721 5722 5724 5725 5726 5727 5728 5730
5712 5710 5709 5708 5706 5706 5704 5703 5702 5701 5700 5699 5697 5696 5695 5693 5692 5691 5691 5691 5692 5692 5692 5693 5694 5695 5696 5698 5700 5702 5704 5706 5708 5709 5710 5712 5713 5714 5715 5716 5718 5719 5721
5704 5702 5701 5700 5699 5698 5696 5695 5694 5693 5692 5691 5689 5688 5686 5685 5684 5683 5682 5682 5682 5683 5683 5684 5685 5685 5687 5689 5690 5692 5694 5696 5698 5699 5701 5702 5703 5704 5706 5707 5708 5710 5711